Theta_e
300 300 301 304 304 306 307 310 311 310 310 308 304 303 301 301 301 301 300 300 299 299 299 300 300 300 299 300 302 303 305 303 300 300 301 301 303 301 306 307 307 307 309 317
300 299 299 304 304 304 304 305 310 310 307 303 301 300 304 304 303 302 301 300 300 299 299 299 299 300 300 299 300 299 300 303 306 306 300 300 300 300 300 300 302 306 306 305
298 299 300 303 304 305 303 303 304 304 302 301 300 300 299 299 299 299 298 298 299 299 299 299 299 299 299 299 299 300 300 299 299 299 302 304 301 300 299 300 300 300 300 302
298 298 295 302 303 304 304 302 302 302 302 300 299 298 298 298 298 298 297 297 297 297 297 297 298 298 299 299 299 299 299 299 299 299 299 299 300 300 300 299 300 300 300 300
294 298 299 302 302 303 304 302 302 301 300 300 299 298 297 297 296 296 296 296 296 296 295 295 295 295 295 296 297 297 298 298 298 298 299 299 300 299 300 300 300 300 300 300
292 295 301 299 301 301 303 301 300 300 298 298 298 298 296 296 296 296 295 295 295 295 295 295 294 294 294 294 294 294 295 295 295 295 296 297 298 298 299 300 300 300 300 300
289 294 299 299 300 301 301 301 299 297 297 296 296 295 295 294 294 294 294 294 293 294 294 294 294 294 294 294 294 294 295 295 294 295 294 295 295 296 298 298 299 300 300 300
292 288 292 299 300 299 298 300 297 296 296 295 295 294 294 293 293 293 293 293 294 294 294 294 295 295 294 294 294 293 293 294 294 294 295 295 295 295 295 295 296 299 300 300
295 291 295 300 300 300 300 297 296 295 295 294 294 293 293 292 292 293 294 294 293 293 293 293 293 294 294 294 293 293 293 293 293 294 294 294 295 295 295 295 295 295 295 298
296 297 298 299 300 297 297 296 295 294 294 294 293 293 292 292 291 291 291 291 293 293 293 293 294 294 293 293 292 292 293 293 293 293 293 292 293 293 294 295 295 295 295 296
298 297 299 299 299 299 299 296 295 294 294 293 293 292 292 292 291 291 290 290 290 290 290 292 293 293 293 292 292 292 292 293 293 292 292 292 291 291 290 291 292 293 294 294
295 297 298 298 298 299 296 295 295 294 293 292 292 292 291 291 291 290 289 289 290 291 291 291 291 292 291 290 291 292 292 292 292 292 292 292 291 291 291 289 290 290 291 292
297 297 297 298 297 296 296 295 294 293 292 291 291 291 290 289 289 289 289 289 290 290 291 291 291 291 290 290 290 291 291 292 292 292 291 290 290 290 290 291 290 289 290 290
298 297 296 296 296 296 295 295 294 294 293 292 291 291 290 290 288 289 289 289 289 289 290 290 290 291 290 290 290 291 291 292 292 291 291 290 289 290 289 289 290 290 290 290
298 297 297 296 296 295 295 295 294 294 294 293 292 291 290 289 288 288 288 289 289 289 290 290 290 290 290 289 290 291 292 292 292 291 291 291 290 290 290 290 291 290 290 290
298 297 296 296 296 296 295 295 294 294 294 293 292 291 290 289 288 288 288 288 288 288 289 289 290 290 290 290 291 291 292 292 292 291 291 290 290 290 290 290 291 290 289 290
297 297 296 296 296 295 295 294 294 294 293 293 292 291 290 289 288 288 288 288 288 288 288 288 289 289 290 290 290 290 291 291 291 290 290 289 290 290 289 290 292 289 290 290
296 296 296 296 295 295 295 294 294 292 291 291 291 291 289 289 289 289 289 288 288 288 288 288 289 289 289 289 290 289 289 290 290 290 289 289 289 290 289 290 291 292 291 291
296 296 296 295 294 294 294 293 292 291 291 290 291 290 290 290 291 290 289 289 288 288 288 288 289 289 289 289 289 289 289 290 290 289 289 289 290 290 290 291 292 292 292 293
296 294 292 291 291 291 292 291 290 289 289 289 290 290 290 290 289 288 289 290 289 289 289 288 288 288 288 288 289 289 289 290 290 289 289 289 289 290 290 290 291 291 292 292
294 292 291 290 289 289 289 288 288 287 288 288 287 287 286 286 286 286 287 288 290 289 287 287 287 287 288 288 288 289 289 289 289 289 289 289 289 289 289 290 290 290 290 291
293 292 291 289 289 288 287 287 286 285 286 286 285 286 287 288 288 288 288 289 289 287 287 287 286 286 287 287 288 288 288 288 289 289 289 289 289 289 289 289 290 290 290 290
293 293 290 289 288 287 286 285 285 286 286 286 287 287 287 287 287 287 287 287 287 287 286 287 286 287 287 287 287 287 287 288 288 289 289 289 289 289 289 289 289 289 290 290
294 292 290 289 288 286 285 285 285 286 286 286 286 285 285 285 285 286 286 286 286 287 286 286 287 287 287 287 286 286 286 287 287 287 288 289 289 289 289 289 290 290 291 291
293 291 290 288 287 285 285 285 285 285 285 285 285 284 284 284 285 285 286 286 287 287 286 287 287 286 286 286 286 285 285 286 286 286 287 288 288 289 289 289 288 289 289 289
293 291 289 288 285 285 285 285 285 285 285 284 284 283 284 284 284 285 287 287 287 287 287 287 286 286 286 286 285 285 285 285 285 285 286 286 287 287 288 288 288 289 289 289
291 290 288 287 285 285 284 284 284 284 284 284 283 283 283 283 284 286 287 287 287 287 287 286 286 285 285 285 285 284 284 284 284 284 284 285 286 286 286 287 287 288 288 288
Wind_Speed
14 15 6 15 19 19 16 13 9 11 6 7 7 7 6 16 22 26 23 22 23 30 27 25 29 25 27 29 27 27 25 26 27 26 26 24 18 18 13 11 9 5 5 8
7 7 10 12 19 19 20 16 9 10 10 9 18 24 14 19 21 20 15 14 14 19 22 23 25 22 25 21 20 22 20 18 18 19 18 17 17 18 21 13 6 7 3 5
5 17 10 9 22 14 17 20 16 14 10 16 18 19 19 23 28 20 20 25 24 23 23 21 18 18 18 19 17 14 17 19 16 14 7 7 10 10 10 13 13 8 8 4
4 9 7 7 12 10 9 17 16 13 14 14 19 25 25 22 23 22 21 23 20 19 20 18 16 16 13 10 10 14 15 11 13 11 11 10 8 7 8 10 10 8 8 8
2 3 3 3 12 10 9 9 15 14 10 7 6 12 23 24 22 20 20 20 20 19 19 17 15 15 15 14 16 15 10 13 16 15 15 13 14 12 11 11 10 12 10 8
3 3 4 2 18 19 8 10 14 15 12 9 17 7 4 19 19 19 17 17 18 18 17 17 19 18 18 19 17 17 19 19 19 19 20 20 20 20 16 16 18 16 16 15
2 1 4 5 17 9 5 4 15 12 12 13 4 4 5 12 15 16 16 17 16 16 16 18 18 18 18 18 18 19 20 18 18 18 20 21 22 22 23 24 24 23 21 21
2 5 5 18 12 6 3 8 9 13 13 12 11 12 15 17 17 17 18 19 20 21 20 20 20 20 20 19 20 20 19 20 21 22 21 22 24 25 25 26 29 30 28 26
1 4 6 10 7 10 4 6 9 11 12 11 11 14 17 19 20 21 21 21 21 23 24 24 25 25 24 22 23 24 25 25 26 26 26 27 28 28 29 30 32 33 33 33
2 4 6 7 6 5 4 6 8 8 10 13 15 16 17 20 21 21 21 22 24 25 26 28 26 24 23 24 26 27 27 29 31 32 31 30 31 32 34 33 34 34 36 37
4 7 9 12 12 9 8 7 9 11 13 14 15 17 18 21 23 24 22 22 22 22 25 26 25 23 25 25 27 29 32 34 34 34 34 34 33 31 32 35 36 36 36 37
4 6 6 11 7 4 4 5 8 12 14 15 17 19 21 21 20 21 22 22 24 25 28 28 25 24 27 25 26 29 31 33 35 37 38 37 38 39 35 33 32 34 35 35
5 12 11 9 6 5 3 5 8 9 10 11 13 15 19 20 19 19 21 24 25 28 29 29 27 28 30 29 28 28 30 34 35 35 35 36 38 39 44 40 35 35 33 32
8 7 3 8 4 7 5 7 9 11 12 15 18 19 21 23 21 19 21 21 22 27 27 27 30 30 32 31 29 30 30 33 33 35 35 34 34 33 35 36 40 41 36 33
6 5 6 5 8 6 8 9 11 12 14 17 19 20 21 24 22 19 20 20 22 26 27 29 30 30 32 30 29 30 33 34 35 35 35 35 34 34 32 33 35 39 38 36
4 3 3 5 7 10 11 11 12 14 17 20 22 22 21 24 20 20 20 21 23 27 29 31 29 31 32 30 31 32 33 35 36 39 39 38 35 34 32 32 32 33 35 34
6 6 8 10 11 12 13 12 12 16 19 20 22 21 24 22 22 24 25 24 24 25 26 27 32 31 29 28 29 31 33 35 36 37 36 35 33 32 29 27 27 25 25 23
6 6 7 8 10 11 11 13 16 17 19 22 22 21 21 21 24 25 25 25 25 25 25 26 30 30 28 26 27 28 30 32 33 33 32 31 31 29 26 20 18 19 19 18
5 6 8 11 12 14 15 15 16 18 19 20 20 22 23 27 24 25 25 26 24 26 27 28 29 29 28 25 26 26 28 31 32 31 30 29 29 27 24 19 15 15 16 17
7 8 10 12 13 12 12 14 18 21 21 20 20 22 22 24 23 25 24 25 22 24 26 29 27 29 27 25 24 24 25 27 29 28 27 26 25 24 22 19 15 13 13 12
7 9 11 14 13 13 15 19 21 20 21 21 21 23 26 30 29 28 25 25 22 22 20 24 27 26 24 24 23 22 22 24 26 27 25 24 22 19 17 15 13 9 6 7
9 11 13 13 13 14 17 18 21 22 20 19 17 16 19 21 21 18 15 15 17 20 22 21 24 23 21 22 21 21 21 22 23 24 24 22 21 18 14 10 6 4 3 5
12 13 12 13 13 16 18 15 13 14 15 13 14 18 19 19 18 19 21 19 20 22 17 18 22 21 18 19 20 21 20 20 20 21 22 21 20 18 15 12 8 5 5 7
15 12 11 12 14 16 12 12 11 11 12 12 13 15 19 23 22 20 22 22 19 18 16 17 21 17 16 17 20 20 17 18 18 18 19 19 19 19 16 14 15 15 16 17
16 13 12 12 15 11 10 10 10 10 10 11 13 16 18 18 21 24 26 25 19 15 12 14 18 15 14 16 19 19 16 15 16 17 16 16 17 18 18 17 16 15 15 15
18 14 12 13 12 8 8 9 10 9 11 13 15 19 19 20 21 24 25 19 14 12 11 13 15 14 12 15 17 19 19 15 14 13 14 14 13 12 14 14 15 16 16 14
18 14 13 12 10 8 8 9 9 10 11 14 18 19 21 21 21 23 19 17 14 13 13 13 15 15 14 14 15 17 17 17 16 15 12 11 10 9 8 8 8 8 8 8
Wind_Direction
288 295 339 19 6 10 5 355 24 67 65 70 88 94 77 87 80 74 66 61 59 57 46 53 59 56 53 42 37 38 42 46 50 57 56 46 51 46 51 64 78 105 154 183
293 306 340 30 24 11 17 358 16 32 39 48 67 61 114 91 78 71 71 57 52 60 65 47 48 48 48 50 40 32 43 43 24 18 34 52 47 26 39 25 35 34 232 134
295 330 330 22 2 20 15 29 25 41 38 66 62 65 61 71 71 70 66 67 60 60 64 63 59 39 30 30 30 36 35 25 22 31 24 3 352 7 27 9 22 19 14 347
296 340 39 334 348 354 25 31 27 43 43 51 65 61 51 57 71 66 61 58 53 45 39 23 24 34 41 36 355 3 15 7 357 353 347 343 348 333 314 321 344 351 356 337
22 347 275 356 350 345 350 25 13 19 25 8 33 48 43 46 52 54 46 44 38 38 35 23 14 2 355 354 360 10 342 339 333 332 323 315 304 302 313 312 305 288 284 292
357 45 1 263 331 333 305 33 355 352 15 14 29 46 355 18 28 31 31 26 22 15 10 8 4 2 359 359 352 341 339 333 328 315 311 305 301 293 290 295 288 288 281 277
17 325 297 307 318 313 44 354 332 11 15 27 63 55 18 13 15 11 8 9 10 14 14 7 4 1 359 357 353 348 341 334 325 317 311 306 299 292 291 280 278 278 277 277
339 33 341 353 346 69 215 315 337 1 11 20 23 12 6 4 7 10 12 12 13 14 17 13 8 3 2 358 351 345 338 332 326 323 316 307 299 294 288 283 275 272 269 267
163 230 279 314 300 312 295 342 343 350 11 12 7 4 1 5 5 0 359 3 8 7 2 2 359 358 352 349 344 337 334 332 330 325 320 314 307 299 290 283 281 277 271 265
45 271 268 301 326 355 8 337 347 3 1 1 359 355 358 359 1 3 1 0 358 358 355 351 348 349 345 342 338 334 332 331 330 328 325 318 314 305 297 289 281 276 274 270
264 283 288 290 274 255 304 331 343 349 352 355 351 351 350 351 354 356 355 356 356 355 351 345 341 342 340 335 335 332 330 330 329 327 322 318 312 299 293 291 287 284 275 270
231 276 246 287 308 195 224 316 340 345 347 349 346 347 345 345 350 352 353 348 346 346 345 342 338 337 342 337 330 328 327 328 329 327 324 320 316 311 302 292 286 279 277 272
268 311 288 267 232 229 276 324 335 338 346 347 344 340 341 344 347 345 345 341 341 341 339 340 338 336 342 335 327 326 325 327 326 323 321 320 316 314 311 306 296 289 284 273
292 305 253 225 248 249 278 315 328 334 338 340 339 338 338 338 337 339 337 333 333 333 337 336 335 332 336 332 327 325 325 327 326 326 322 314 315 311 303 300 298 296 289 281
284 307 288 268 250 252 285 307 315 321 327 331 333 333 332 332 330 327 329 330 326 329 337 337 334 332 335 333 328 326 328 330 330 327 324 322 319 317 308 297 294 285 285 275
252 276 273 262 271 272 277 285 299 313 322 325 327 326 325 326 323 320 325 325 326 327 332 329 336 336 336 334 332 330 331 333 334 332 331 330 326 321 316 301 296 284 275 267
220 251 273 283 288 287 284 284 295 310 318 321 321 318 321 320 321 325 324 321 321 322 325 327 333 335 336 335 334 334 334 334 336 332 331 327 324 318 311 298 288 286 279 273
241 266 286 293 299 299 294 295 305 317 320 323 319 316 320 316 316 317 323 326 323 320 324 322 335 335 336 335 336 336 338 336 336 334 333 329 328 323 318 310 302 297 287 277
256 287 299 305 306 303 301 303 308 311 312 316 310 312 311 312 313 322 319 316 322 324 327 323 332 335 337 338 338 341 342 343 343 340 338 336 334 332 329 326 322 308 297 288
276 296 309 314 316 312 309 313 314 316 319 318 312 313 315 314 309 316 308 309 301 314 317 319 332 335 339 340 344 345 346 347 348 347 347 344 338 334 337 338 333 320 299 281
283 305 318 323 325 325 322 321 320 320 319 315 313 313 314 311 306 305 305 306 316 316 319 327 331 335 339 341 340 344 345 348 353 355 355 356 350 343 339 335 334 330 303 258
289 306 316 323 323 322 322 319 318 320 323 322 326 341 358 358 352 342 334 312 313 317 319 325 332 338 341 342 348 349 352 351 356 1 5 5 6 5 1 355 347 320 262 218
286 297 309 317 315 319 323 324 327 341 352 354 352 347 348 343 350 347 338 335 327 328 323 327 330 337 342 346 351 351 353 355 1 6 13 17 17 18 25 33 46 80 126 151
271 285 297 306 311 318 321 329 338 341 344 336 342 348 346 342 344 348 339 333 328 325 325 328 334 340 346 348 351 349 352 357 1 4 9 21 28 30 35 52 66 78 92 104
270 278 286 298 312 311 319 328 332 328 339 344 349 351 350 349 344 343 340 333 328 325 330 337 342 346 350 351 353 0 355 356 1 4 7 13 24 34 41 50 59 67 75 80
262 271 279 297 306 299 312 322 333 336 344 349 353 352 357 355 350 347 348 349 347 349 349 349 354 355 356 357 358 3 8 7 2 3 8 14 20 26 36 40 45 48 53 61
253 259 273 293 292 287 298 311 328 335 342 344 349 352 354 355 356 357 4 17 20 14 14 13 14 11 4 4 7 8 13 19 15 11 7 4 8 19 29 40 49 57 63 77